Location: Marsån
(66.4167°N, 22.2833°E)
Time: 11:49:16
(UTC+00:00)

Meteor 2-4 Rocket - Pass Details

Date: 24 February 2024
Orbit: 798 x 907 km, 81.2° (Epoch: 15 April)

Event Time Altitude Azimuth Distance (km) Brightness Sun altitude
Rises 17:45:39 0° 333° (NNW) 3,378 7.4 -14.8°
Reaches altitude 10° 17:48:09 10° 339° (NNW) 2,428 6.5 -15.0°
Maximum altitude 17:53:29 51° 55° (NE) 1,017 3.9 -15.6°
Enters shadow 17:56:35 24° 121° (ESE) 1,632 4.6 -15.9°
